Regional Weather Roundup
Issued by NWS

Home | Current Version | Previous Version | Text Only | Print | Product List | Glossary Off
Versions: 1 2 3 4 5 6 7 8 9 10 11 12 13 14 15 16 17 18 19 20 21 22 23 24 25 26 27 28 29 30 31 32 33 34 35 36 37 38 39 40 41 42 43 44 45 46 47 48 49 50

933
ASUS43 KFSD 120202
RWRSD

WEATHER ROUNDUP FOR SOUTH DAKOTA
NATIONAL WEATHER SERVICE SIOUX FALLS SD
800 PM CST THU FEB 11 2016

NOTE: "FAIR" INDICATES FEW OR NO CLOUDS BELOW 12,000 FEET WITH NO
SIGNIFICANT WEATHER AND/OR OBSTRUCTIONS TO VISIBILITY.


SDZ001>005-009-010-012>017-120300-
NORTHWEST AND NORTH CENTRAL SOUTH DAKOTA

CITY           SKY/WX    TMP DP  RH WIND       PRES   REMARKS
BUFFALO          N/A     31  26  82 N10       30.14R WCI  22
FAITH            N/A     28  25  88 N10       30.20R WCI  19
MOBRIDGE       CLOUDY    27  22  81 N9        30.20R WCI  18
$$

SDZ012>016-024>037-041>051-057-063-072>074-120300-
SOUTHWEST AND SOUTH CENTRAL SOUTH DAKOTA

CITY           SKY/WX    TMP DP  RH WIND       PRES   REMARKS
RAPID CTY ARPT CLOUDY    35  30  82 N16       30.17R WCI  25
PIERRE         CLOUDY    27  24  89 N3        30.21R
CUSTER         CLEAR     40  22  48 NW14G24   30.14R
ELLSWORTH AFB  CLOUDY    35  31  84 N15       30.17R WCI  25
PHILIP         CLOUDY    31  28  89 E5        30.20R WCI  26
PINE RIDGE     CLEAR     41  30  65 N6        30.16R
WINNER         CLOUDY    29  25  85 N8        30.19R WCI  21
$$

SDZ004>011-016>023-039-040-120300-
NORTHEAST SOUTH DAKOTA

CITY           SKY/WX    TMP DP  RH WIND       PRES   REMARKS
ABERDEEN       CLOUDY    18  11  74 N9        30.26R WCI   7
WATERTOWN      CLOUDY    18  14  84 W5        30.18R WCI  11
BROOKINGS      CLOUDY    13  11  92 SW3       30.19R
SISSETON         N/A     15  11  83 N10       30.25R WCI   2
$$

SDZ017-020-022-023-036>040-048>070-120300-
SOUTHEAST SOUTH DAKOTA

CITY           SKY/WX    TMP DP  RH WIND       PRES   REMARKS
SIOUX FALLS    FLURRIES  12   9  87 CALM      30.20R
HURON          CLOUDY    21  19  92 W3        30.23R
MITCHELL       CLOUDY    16  14  92 CALM      30.23R FOG
YANKTON        CLOUDY    18  14  86 E6        30.21R WCI   9
$$

ABBREVIATIONS USED IN REMARKS
   TC - TEMPERATURE IN CELSIUS
  WCI - WIND CHILL INDEX
   HX - HEAT INDEX
  VSB - VISIBILITY





USA.gov is the U.S. government's official web portal to all federal, state and local government web resources and services.